YAOGAN 24

Last updated on Wed Apr 24 2024 00:02:24 GMT+0000 (Coordinated Universal Time)

1 40310U 14072A 24114.56061704 .00002979 00000+0 43858-3 0 9990 2 40310 98.0469 239.3045 0011674 256.1887 103.8024 14.76115101507960

Satellite not in orbit

YAOGAN 24